Regional Weather Roundup
Issued by NWS

Home | Current Version | Previous Version | Text Only | Print | Product List | Glossary Off
Versions: 1 2 3 4 5 6 7 8 9 10 11 12 13 14 15 16 17 18 19 20 21 22 23 24 25 26 27 28 29 30 31 32 33 34 35 36 37 38 39 40 41 42 43 44 45 46 47 48 49 50

000
ASUS43 KOAX 241210
RWRNE

WEATHER ROUNDUP FOR NEBRASKA
NATIONAL WEATHER SERVICE OMAHA NE
700 AM CDT SUN JUL 24 2016

NOTES: SATELLITE DATA IS BEING USED TO AUGMENT CLOUD COVER ABOVE
       12000 FEET.
       "FAIR" INDICATES FEW OR NO CLOUDS BELOW 12,000 FEET WITH NO
       SIGNIFICANT WEATHER AND/OR OBSTRUCTIONS TO VISIBILITY.

  * THESE STATIONS DO NOT REPORT WEATHER SUCH AS RAIN...SNOW OR FOG.

NEZ001>004-019>022-054>056-241300-
NEBRASKA PANHANDLE

CITY           SKY/WX    TMP DP  RH WIND       PRES   REMARKS
SCOTTSBLUFF    PTCLDY    62  56  80 CALM      30.10R
6HR MIN TEMP:  62; 6HR MAX TEMP:  69;

ALLIANCE       CLOUDY    57  55  93 CALM      30.08R
6HR MIN TEMP:  57; 6HR MAX TEMP:  66;

CHADRON        PTCLDY    59  47  64 NE5       30.08R
6HR MIN TEMP:  56; 6HR MAX TEMP:  66;

KIMBALL        CLOUDY    63  56  77 CALM      30.17R
SIDNEY         CLOUDY    63  55  75 CALM      30.17R
6HR MIN TEMP:  59; 6HR MAX TEMP:  74;

$$

NEZ057>060-069>072-079>082-241300-
SOUTHWEST NEBRASKA

CITY           SKY/WX    TMP DP  RH WIND       PRES   REMARKS
NORTH PLATTE   MOCLDY    70  59  68 E13       29.99R
6HR MIN TEMP:  68; 6HR MAX TEMP:  74;

IMPERIAL       CLOUDY    70  59  68 CALM      30.05R
6HR MIN TEMP:  69; 6HR MAX TEMP:  80; 6HR PCP: TRACE;

LEXINGTON      MOCLDY    69  60  74 NE9       29.99R
MCCOOK         CLOUDY    68  62  81 E3        30.00R
6HR MIN TEMP:  68; 6HR MAX TEMP:  76;

OGALLALA       CLOUDY    66  59  77 W3        30.06R
$$

NEZ005>010-023>029-035>040-094-241300-
NORTH CENTRAL NEBRASKA

CITY           SKY/WX    TMP DP  RH WIND       PRES   REMARKS
VALENTINE      CLOUDY    69  53  56 N12       30.05R
6HR MIN TEMP:  62; 6HR MAX TEMP:  71; 6HR PCP:  0.01;

AINSWORTH      CLOUDY    67  61  81 CALM      30.05R
BROKEN BOW     PTCLDY    67  61  81 NE10      29.99S
6HR MIN TEMP:  63; 6HR MAX TEMP:  74;

O`NEILL        CLOUDY    66  63  90 CALM      29.99F
ORD            CLOUDY    66  62  87 N5        29.98R
6HR MIN TEMP:  66; 6HR MAX TEMP:  76;

THEDFORD       MOCLDY    64  60  85 E6        30.04S
$$

NEZ041-046>049-061>064-073>077-083>087-241300-
SOUTH CENTRAL NEBRASKA

CITY           SKY/WX    TMP DP  RH WIND       PRES   REMARKS
GRAND ISLAND   PTCLDY    68  65  90 N7        29.97R
6HR MIN TEMP:  67; 6HR MAX TEMP:  81;

AURORA         CLOUDY    69  68  95 CALM      29.96R
HASTINGS       PTCLDY    70  66  87 NE6       29.97R
6HR MIN TEMP:  70; 6HR MAX TEMP:  78;

HEBRON         PTCLDY    75  71  85 E9        29.93R
HOLDREGE       CLOUDY    69  64  84 N7        29.97S
KEARNEY *      CLOUDY    70  63  78 N7        29.99R
YORK           CLEAR     70  66  88 CALM      29.95R
$$

NEZ011>018-030>034-042>045-241300-
NORTHEAST NEBRASKA

CITY           SKY/WX    TMP DP  RH WIND       PRES   REMARKS
NORFOLK        CLEAR     69  62  78 N5        29.93R
6HR MIN TEMP:  67; 6HR MAX TEMP:  81;

ALBION         CLEAR     66  61  85 NW7       29.98R
BLAIR          CLEAR     76  73  88 N7        29.91R
FREMONT        CLEAR     73  69  85 CALM      29.92R
TEKAMAH        CLEAR     73  69  87 N7        29.90R
6HR MIN TEMP:  73; 6HR MAX TEMP:  79;

WAYNE          CLEAR     63  62  96 CALM      29.93R
$$

NEZ050>053-065>068-078-088>093-241300-
SOUTHEAST NEBRASKA

CITY           SKY/WX    TMP DP  RH WIND       PRES   REMARKS
LINCOLN        PTCLDY    75  69  81 N8        29.91R
6HR MIN TEMP:  74; 6HR MAX TEMP:  80;

OMAHA EPPLEY   PTCLDY    77  74  90 N7        29.88R
6HR MIN TEMP:  77; 6HR MAX TEMP:  85;

BEATRICE       MOCLDY    75  71  86 NE3       29.93R
FALLS CITY     CLOUDY    82  70  66 W14       29.87R
6HR MIN TEMP:  79; 6HR MAX TEMP:  85; 6HR PCP: TRACE;

NEBRASKA CITY  MOCLDY    77  76  97 NW6       29.89R
PLATTSMOUTH    CLEAR     77  75  93 NW7       29.89R
$$

NEZ044-045-051>053-067-241300-
OMAHA AREA

CITY           SKY/WX    TMP DP  RH WIND       PRES   REMARKS
OMAHA EPPLEY   PTCLDY    77  74  90 N7        29.88R
6HR MIN TEMP:  77; 6HR MAX TEMP:  85;

BLAIR          CLEAR     76  73  88 N7        29.91R
FREMONT        CLEAR     73  69  85 CALM      29.92R
MILLARD        CLEAR     79  74  83 N5        29.89R
OFFUTT AFB     CLEAR     79  76  91 VRB5      29.88R
PLATTSMOUTH    CLEAR     77  75  93 NW7       29.89R
WAHOO          FAIR      73  70  89 NW3       29.92R
$$




USA.gov is the U.S. government's official web portal to all federal, state and local government web resources and services.